KQ4NAL Weather Reports


Display with metric or nautical units.
time (UTC)temp
F
wind
direction
speed
MPH
gust
MPH
rain 1hr
in
rain 24hr
in
rain mn
in
humidity
%
barometer
mb
20260904173255 95 6 3.0 5.0 0.00 0.00 0.00 54 1017.2
20260904172752 96 334 5.0 7.0 0.00 0.00 0.00 54 1017.1
20260904172250 96 343 5.0 7.0 0.00 0.00 0.00 55 1017.1
20260904171746 95 357 3.0 5.0 0.00 0.00 0.00 54 1017.2
20260904171241 95 359 2.0 2.0 0.00 0.00 0.00 54 1017.3
20260904170737 95 342 6.0 7.0 0.00 0.00 0.00 55 1017.0
20260904170233 94 340 1.0 2.0 0.00 0.00 0.00 56 1017.1
20260904165732 93 331 0.0 1.0 0.00 0.00 0.00 57 1017.4
20260904165226 94 323 4.0 6.0 0.00 0.00 0.00 56 1017.4
20260904164720 96 347 2.0 2.0 0.00 0.00 0.00 53 1017.3
20260904164215 96 347 2.0 3.0 0.00 0.00 0.00 55 1017.3
20260904163712 96 328 2.0 2.0 0.00 0.00 0.00 53 1017.3
20260904163207 97 341 1.0 2.0 0.00 0.00 0.00 53 1017.3
20260904162706 97 0 0.0 1.0 0.00 0.00 0.00 52 1017.2
20260904162201 95 1 2.0 3.0 0.00 0.00 0.00 54 1017.3
20260904161656 95 297 5.0 6.0 0.00 0.00 0.00 54 1017.6
20260904161151 95 333 3.0 6.0 0.00 0.00 0.00 55 1017.2
20260904160647 96 346 3.0 5.0 0.00 0.00 0.00 54 1017.3
20260904160142 96 298 0.0 1.0 0.00 0.00 0.00 55 1017.4
20260904155637 96 343 0.0 0.0 0.00 0.00 0.00 55 1017.4
20260904155131 95 349 0.0 0.0 0.00 0.00 0.00 57 1017.4
20260904154630 94 309 7.0 9.0 0.00 0.00 0.00 57 1017.4
20260904154125 95 347 1.0 2.0 0.00 0.00 0.00 57 1017.4
20260904153620 94 353 3.0 3.0 0.00 0.00 0.00 58 1017.4
20260904153116 94 341 5.0 7.0 0.00 0.00 0.00 58 1017.3
20260904152612 94 12 3.0 5.0 0.00 0.00 0.00 58 1017.4
20260904152107 92 335 2.0 2.0 0.00 0.00 0.00 63 1017.2
20260904151602 93 357 3.0 5.0 0.00 0.00 0.00 61 1017.6
20260904151101 92 308 0.0 0.0 0.00 0.00 0.00 63 1017.6
20260904150556 94 12 6.0 6.0 0.00 0.00 0.00 62 1017.6
20260904150055 94 314 0.0 0.0 0.00 0.00 0.00 61 1017.4
20260904145555 95 345 0.0 0.0 0.00 0.00 0.00 60 1017.4
20260904145050 93 326 1.0 2.0 0.00 0.00 0.00 61 1017.2
20260904144546 93 310 0.0 0.0 0.00 0.00 0.00 63 1017.2
20260904144042 92 325 0.0 1.0 0.00 0.00 0.00 65 1017.3
20260904143537 92 343 0.0 0.0 0.00 0.00 0.00 67 1017.3
20260904143034 90 342 0.0 0.0 0.00 0.00 0.00 68 1017.3
20260904142530 90 326 0.0 1.0 0.00 0.00 0.00 68 1017.3
20260904142025 91 271 2.0 3.0 0.00 0.00 0.00 68 1017.3
20260904141520 91 341 0.0 0.0 0.00 0.00 0.00 71 1017.4
20260904141016 89 344 1.0 2.0 0.00 0.00 0.00 70 1017.2
20260904140511 87 328 1.0 2.0 0.00 0.00 0.00 74 1017.3
20260904140010 87 296 2.0 2.0 0.00 0.00 0.00 75 1017.1
20260904135504 86 339 0.0 0.0 0.00 0.00 0.00 77 1017.3
20260904135001 86 24 0.0 1.0 0.00 0.00 0.00 78 1017.4
20260904134501 86 337 0.0 0.0 0.00 0.00 0.00 81 1017.4
20260904133954 85 357 0.0 0.0 0.00 0.00 0.00 79 1017.7
20260904133449 85 332 0.0 0.0 0.00 0.00 0.00 81 1017.6
20260904132945 84 346 0.0 0.0 0.00 0.00 0.00 80 1017.2
20260904132440 84 354 0.0 0.0 0.00 0.00 0.00 80 1017.7
20260904131940 85 339 0.0 0.0 0.00 0.00 0.00 81 1017.4
20260904131435 83 349 0.0 0.0 0.00 0.00 0.00 83 1017.7
20260904130931 83 339 0.0 0.0 0.00 0.00 0.00 84 1017.6
20260904130429 82 354 0.0 0.0 0.00 0.00 0.00 86 1017.9
20260904125924 81 351 0.0 0.0 0.00 0.00 0.00 89 1017.9
20260904125421 79 351 0.0 0.0 0.00 0.00 0.00 92 1017.8
20260904124920 78 350 0.0 0.0 0.00 0.00 0.00 95 1017.7
20260904124417 77 351 0.0 0.0 0.00 0.00 0.00 98 1017.6
20260904123907 76 348 0.0 0.0 0.00 0.00 0.00 99 1017.4
20260904123406 75 353 0.0 0.0 0.00 0.00 0.00 99 1017.4
20260904122903 74 348 0.0 0.0 0.00 0.00 0.00 99 1017.6
20260904122401 74 343 0.0 0.0 0.00 0.00 0.00 99 1017.1
20260904121856 74 346 0.0 0.0 0.00 0.00 0.00 99 1017.4
20260904121353 74 346 0.0 0.0 0.00 0.00 0.00 99 1017.1
20260904120849 73 346 0.0 0.0 0.00 0.00 0.00 99 1017.2
20260904120345 73 346 0.0 0.0 0.00 0.00 0.00 99 1017.1
20260904115840 73 347 0.0 0.0 0.00 0.00 0.00 99 1017.0
20260904115335 72 346 0.0 0.0 0.00 0.00 0.00 99 1016.9
20260904114835 71 346 0.0 0.0 0.00 0.00 0.00 99 1017.0
20260904114329 71 346 0.0 0.0 0.00 0.00 0.00 99 1017.0
20260904113825 71 346 0.0 0.0 0.00 0.00 0.00 99 1016.9
20260904113324 71 347 0.0 0.0 0.00 0.00 0.00 99 1016.8
20260904112819 71 345 0.0 0.0 0.00 0.00 0.00 99 1016.9
20260904112314 71 344 0.0 0.0 0.00 0.00 0.00 99 1016.7
20260904111810 71 347 0.0 0.0 0.00 0.00 0.00 99 1016.8
20260904111306 71 344 0.0 0.0 0.00 0.00 0.00 99 1016.7
20260904110801 71 347 0.0 0.0 0.00 0.00 0.00 99 1016.3
20260904110300 71 346 0.0 0.0 0.00 0.00 0.00 99 1016.6
20260904105755 71 341 0.0 0.0 0.00 0.00 0.00 99 1016.7
20260904105250 71 346 0.0 0.0 0.00 0.00 0.00 99 1016.5
20260904104745 71 346 0.0 0.0 0.00 0.00 0.00 99 1016.4
20260904104240 72 344 0.0 0.0 0.00 0.00 0.00 99 1016.5
20260904103738 72 349 0.0 0.0 0.00 0.00 0.00 99 1016.6
20260904103232 71 349 0.0 0.0 0.00 0.00 0.00 99 1016.4
20260904102727 71 345 0.0 0.0 0.00 0.00 0.00 99 1016.5
20260904102223 71 339 0.0 0.0 0.00 0.00 0.00 99 1016.5
20260904101714 71 343 0.0 0.0 0.00 0.00 0.00 99 1016.4
20260904101210 72 343 0.0 0.0 0.00 0.00 0.00 99 1016.5
20260904100705 72 346 0.0 0.0 0.00 0.00 0.00 99 1016.4
20260904100201 71 346 0.0 0.0 0.00 0.00 0.00 99 1016.4
20260904095700 72 344 0.0 0.0 0.00 0.00 0.00 99 1016.3
20260904095155 72 355 0.0 0.0 0.00 0.00 0.00 99 1016.4
20260904094650 72 346 0.0 0.0 0.00 0.00 0.00 99 1016.5
20260904094144 72 344 0.0 0.0 0.00 0.00 0.00 99 1016.4
20260904093642 72 343 0.0 0.0 0.00 0.00 0.00 99 1016.3
20260904093141 72 344 0.0 0.0 0.00 0.00 0.00 99 1016.3
20260904092637 72 346 0.0 0.0 0.00 0.00 0.00 99 1016.4
20260904092133 72 345 0.0 0.0 0.00 0.00 0.00 99 1016.2
20260904091629 72 347 0.0 0.0 0.00 0.00 0.00 99 1016.3
20260904091129 72 340 0.0 0.0 0.00 0.00 0.00 99 1016.2
20260904090625 72 343 0.0 0.0 0.00 0.00 0.00 99 1016.4
20260904090120 72 345 0.0 0.0 0.00 0.00 0.00 99 1016.5
20260904085620 72 345 0.0 0.0 0.00 0.00 0.00 99 1016.3
20260904085120 71 345 0.0 0.0 0.00 0.00 0.00 99 1016.3
20260904084615 71 345 0.0 0.0 0.00 0.00 0.00 99 1016.2
20260904084112 71 345 0.0 0.0 0.00 0.00 0.00 99 1016.2
20260904083608 71 345 0.0 0.0 0.00 0.00 0.00 99 1016.2
20260904083103 71 344 0.0 0.0 0.00 0.00 0.00 99 1016.2
20260904082558 72 344 0.0 0.0 0.00 0.00 0.00 99 1016.2
20260904082053 73 336 0.0 0.0 0.00 0.00 0.00 99 1016.4
20260904081549 72 346 0.0 0.0 0.00 0.00 0.00 99 1016.4
20260904081044 72 347 0.0 0.0 0.00 0.00 0.00 99 1016.3
20260904080539 72 344 0.0 0.0 0.00 0.00 0.00 99 1016.2
20260904080036 72 344 0.0 0.0 0.00 0.00 0.00 99 1016.3
20260904075532 72 344 0.0 0.0 0.00 0.00 0.00 99 1016.3
20260904075027 72 344 0.0 0.0 0.00 0.00 0.00 99 1016.3
20260904074520 72 344 0.0 0.0 0.00 0.00 0.00 99 1016.2
20260904074020 73 344 0.0 0.0 0.00 0.00 0.00 99 1016.2
20260904073515 73 344 0.0 0.0 0.00 0.00 0.00 99 1016.3
20260904073012 72 342 0.0 0.0 0.00 0.00 0.00 99 1016.4
20260904072508 72 342 0.0 0.0 0.00 0.00 0.00 99 1016.5
20260904072008 72 342 0.0 0.0 0.00 0.00 0.00 99 1016.3
20260904071503 72 342 0.0 0.0 0.00 0.00 0.00 99 1016.5
20260904070958 72 342 0.0 0.0 0.00 0.00 0.00 99 1016.3
20260904070456 73 341 0.0 0.0 0.00 0.00 0.00 99 1016.4
20260904065951 73 341 0.0 0.0 0.00 0.00 0.00 99 1016.5
20260904065447 73 347 0.0 0.0 0.00 0.00 0.00 99 1016.4
20260904064943 73 344 0.0 0.0 0.00 0.00 0.00 99 1016.5
20260904064439 73 344 0.0 0.0 0.00 0.00 0.00 99 1016.5
20260904063939 73 337 0.0 0.0 0.00 0.00 0.00 99 1016.5
20260904063436 73 344 0.0 0.0 0.00 0.00 0.00 99 1016.5
20260904062930 73 348 0.0 0.0 0.00 0.00 0.00 99 1016.7
20260904062426 74 348 0.0 0.0 0.00 0.00 0.00 99 1016.6
20260904061922 73 346 0.0 0.0 0.00 0.00 0.00 99 1016.6
20260904061418 73 343 0.0 0.0 0.00 0.00 0.00 99 1016.9
20260904060914 73 343 0.0 0.0 0.00 0.00 0.00 99 1016.9
20260904060410 73 344 0.0 0.0 0.00 0.00 0.00 99 1016.9
20260904055905 73 342 0.0 0.0 0.00 0.00 0.00 99 1016.9
20260904055400 73 348 0.0 0.0 0.00 0.00 0.00 99 1016.8
20260904054856 73 348 0.0 0.0 0.00 0.00 0.00 99 1016.8
20260904054352 74 344 0.0 0.0 0.00 0.00 0.00 99 1016.8
20260904053847 73 346 0.0 0.0 0.00 0.00 0.00 99 1016.8
20260904053346 73 346 0.0 0.0 0.00 0.00 0.00 99 1016.9
20260904052843 74 346 0.0 0.0 0.00 0.00 0.00 99 1016.8
20260904052338 74 347 0.0 0.0 0.00 0.00 0.00 99 1017.0
20260904051835 74 344 0.0 0.0 0.00 0.00 0.00 99 1016.9
20260904051330 74 344 0.0 0.0 0.00 0.00 0.00 99 1016.9
20260904050825 74 344 0.0 0.0 0.00 0.00 0.00 99 1016.9
20260904050322 74 342 0.0 0.0 0.00 0.00 0.00 99 1017.0
20260904045821 74 340 0.0 0.0 0.00 0.00 0.00 99 1016.9
20260904045317 74 348 0.0 0.0 0.00 0.00 0.00 99 1016.8
20260904044811 75 348 0.0 0.0 0.00 0.00 0.00 98 1017.2
20260904044308 74 348 0.0 0.0 0.00 0.00 0.00 98 1017.2
20260904043804 74 348 0.0 0.0 0.00 0.00 0.00 98 1016.9
20260904043300 75 348 0.0 0.0 0.00 0.00 0.00 98 1017.1
20260904042754 75 348 0.0 0.0 0.00 0.00 0.00 98 1016.9
20260904042251 74 347 0.0 0.0 0.00 0.00 0.00 98 1016.7
20260904041750 75 347 0.0 0.0 0.00 0.00 0.00 98 1016.8
20260904041247 74 347 0.0 0.0 0.00 0.00 0.00 98 1016.8
20260904040743 75 347 0.0 0.0 0.00 0.00 0.00 98 1016.9
20260904040238 75 348 0.0 0.0 0.00 0.00 0.00 97 1016.7
20260904035734 75 348 0.0 0.0 0.00 0.00 0.00 97 1016.8
20260904035229 75 348 0.0 0.0 0.00 0.00 0.00 97 1016.6
20260904034728 75 348 0.0 0.0 0.00 0.00 0.00 97 1016.5
20260904034224 75 352 0.0 0.0 0.00 0.00 0.00 97 1016.7
20260904033720 75 343 0.0 0.0 0.00 0.00 0.00 97 1016.7
20260904033216 75 343 0.0 0.0 0.00 0.00 0.00 97 1016.9
20260904032712 75 343 0.0 0.0 0.00 0.00 0.00 97 1016.8
20260904032211 75 344 0.0 0.0 0.00 0.00 0.00 96 1016.8
20260904031711 76 344 0.0 0.0 0.00 0.00 0.00 96 1016.8
20260904031206 76 343 0.0 0.0 0.00 0.00 0.00 96 1016.8
20260904030702 76 345 0.0 0.0 0.00 0.00 0.00 96 1016.8
20260904030157 76 345 0.0 0.0 0.00 0.00 0.00 96 1016.8
20260904025654 76 344 0.0 0.0 0.00 0.00 0.00 95 1016.8
20260904025148 76 345 0.0 0.0 0.00 0.00 0.00 95 1017.0
20260904024644 76 345 0.0 0.0 0.00 0.00 0.00 95 1016.9
20260904024140 77 345 0.0 0.0 0.00 0.00 0.00 94 1017.0
20260904023636 76 345 0.0 0.0 0.00 0.00 0.00 94 1017.0
20260904023131 76 345 0.0 0.0 0.00 0.00 0.00 93 1017.0
20260904022631 77 345 0.0 0.0 0.00 0.00 0.00 93 1016.9
20260904022128 77 345 0.0 0.0 0.00 0.00 0.00 93 1017.0
20260904021624 77 345 0.0 0.0 0.00 0.00 0.00 93 1016.8
20260904021119 77 349 0.0 0.0 0.00 0.00 0.00 92 1016.9
20260904020615 78 349 0.0 0.0 0.00 0.00 0.00 91 1016.8
20260904020109 78 349 0.0 0.0 0.00 0.00 0.00 90 1016.8
20260904015603 78 349 0.0 0.0 0.00 0.00 0.00 91 1016.9
20260904015102 78 340 0.0 0.0 0.00 0.00 0.00 92 1016.9
20260904014601 78 346 0.0 0.0 0.00 0.00 0.00 91 1016.9
20260904014057 78 346 0.0 0.0 0.00 0.00 0.00 90 1017.2
20260904013554 78 346 0.0 0.0 0.00 0.00 0.00 91 1017.2
20260904013050 78 345 0.0 0.0 0.00 0.00 0.00 90 1017.1
20260904012550 78 345 0.0 0.0 0.00 0.00 0.00 90 1016.9
20260904012044 79 345 0.0 0.0 0.00 0.00 0.00 90 1016.8
20260904011543 79 345 0.0 0.0 0.00 0.00 0.00 90 1016.8
20260904011039 79 344 0.0 0.0 0.00 0.00 0.00 89 1017.0
20260904010535 80 345 0.0 0.0 0.00 0.00 0.00 88 1016.6
20260904010031 80 345 0.0 0.0 0.00 0.00 0.00 87 1016.8
20260904005531 80 345 0.0 0.0 0.00 0.00 0.00 86 1016.9
20260904005027 80 345 0.0 0.0 0.00 0.00 0.00 85 1016.5
20260904004522 81 345 0.0 0.0 0.00 0.00 0.00 85 1016.7
20260904004022 81 345 0.0 0.0 0.00 0.00 0.00 84 1016.3
20260904003518 82 345 0.0 0.0 0.00 0.00 0.00 82 1016.4
20260904003014 82 345 0.0 0.0 0.00 0.00 0.00 82 1016.4
20260904002510 83 345 0.0 0.0 0.00 0.00 0.00 81 1016.5
20260904002009 83 345 0.0 0.0 0.00 0.00 0.00 80 1016.4
20260904001505 83 345 0.0 0.0 0.00 0.00 0.00 80 1016.3
20260904001004 84 345 0.0 0.0 0.00 0.00 0.00 80 1016.2
20260904000504 84 345 0.0 0.0 0.00 0.00 0.00 79 1016.2
20260904000000 85 345 0.0 0.0 0.00 0.00 0.00 78 1016.2
20260903235455 86 347 0.0 0.0 0.00 0.00 0.00 77 1016.0
20260903234954 86 347 0.0 0.0 0.00 0.00 0.00 76 1016.2
20260903234450 87 347 0.0 0.0 0.00 0.00 0.00 73 1016.0
20260903233947 88 347 0.0 0.0 0.00 0.00 0.00 74 1016.0
20260903233442 88 347 0.0 0.0 0.00 0.00 0.00 71 1016.1
20260903232937 90 335 0.0 0.0 0.00 0.00 0.00 70 1015.9
20260903232432 91 345 0.0 0.0 0.00 0.00 0.00 65 1015.9
20260903231932 92 332 0.0 0.0 0.00 0.00 0.00 65 1015.9
20260903231427 93 338 0.0 0.0 0.00 0.00 0.00 62 1015.8
20260903230922 93 334 0.0 0.0 0.00 0.00 0.00 58 1015.7
20260903230418 93 336 0.0 0.0 0.00 0.00 0.00 60 1015.9
20260903225914 93 285 1.0 2.0 0.00 0.00 0.00 58 1015.9
20260903225409 93 311 0.0 0.0 0.00 0.00 0.00 57 1016.0
20260903224905 93 293 0.0 0.0 0.00 0.00 0.00 57 1015.9
20260903224401 94 346 1.0 2.0 0.00 0.00 0.00 57 1015.8
20260903223857 94 349 0.0 0.0 0.00 0.00 0.00 56 1015.9
20260903223355 94 188 2.0 3.0 0.00 0.00 0.00 56 1015.8
20260903222850 94 311 0.0 1.0 0.00 0.00 0.00 57 1015.8
20260903222350 95 332 1.0 1.0 0.00 0.00 0.00 55 1015.8
20260903221845 94 345 1.0 2.0 0.00 0.00 0.00 56 1015.5
20260903221344 94 238 2.0 5.0 0.00 0.00 0.00 56 1015.4
20260903220842 95 274 1.0 1.0 0.00 0.00 0.00 54 1015.6
20260903220336 95 289 2.0 2.0 0.00 0.00 0.00 54 1015.5
20260903215834 94 212 3.0 3.0 0.00 0.00 0.00 57 1015.3
20260903215326 95 337 1.0 1.0 0.00 0.00 0.00 56 1015.3
20260903214823 96 235 3.0 3.0 0.00 0.00 0.00 54 1015.3
20260903214320 96 325 3.0 3.0 0.00 0.00 0.00 52 1015.5
20260903213814 96 228 5.0 6.0 0.00 0.00 0.00 52 1015.6
20260903213309 96 346 1.0 1.0 0.00 0.00 0.00 51 1015.3
20260903212805 96 227 4.0 5.0 0.00 0.00 0.00 53 1015.4
20260903212302 95 355 3.0 5.0 0.00 0.00 0.00 52 1015.6
20260903211800 96 225 5.0 5.0 0.00 0.00 0.00 54 1015.4
20260903211257 95 326 1.0 2.0 0.00 0.00 0.00 52 1015.4
20260903210753 96 193 5.0 8.0 0.00 0.00 0.00 53 1015.6
20260903210248 96 220 6.0 7.0 0.00 0.00 0.00 53 1015.6
20260903205747 98 314 1.0 2.0 0.00 0.00 0.00 49 1015.7
20260903205247 97 254 3.0 3.0 0.00 0.00 0.00 51 1015.8
20260903204743 98 216 5.0 8.0 0.00 0.00 0.00 50 1015.6
20260903204239 97 326 1.0 1.0 0.00 0.00 0.00 52 1015.8
20260903203734 93 291 0.0 1.0 0.00 0.00 0.00 58 1015.6
20260903203230 95 349 2.0 2.0 0.00 0.00 0.00 55 1015.7
20260903202723 96 252 3.0 5.0 0.00 0.00 0.00 52 1016.0
20260903202220 96 224 5.0 7.0 0.00 0.00 0.00 53 1016.0
20260903201719 97 224 4.0 6.0 0.00 0.00 0.00 51 1016.1
20260903201214 97 347 0.0 0.0 0.00 0.00 0.00 49 1016.1
20260903200708 97 293 4.0 6.0 0.00 0.00 0.00 49 1016.3
20260903200204 98 336 3.0 5.0 0.00 0.00 0.00 51 1016.3
20260903195659 98 298 2.0 3.0 0.00 0.00 0.00 49 1016.4
20260903195155 98 281 2.0 2.0 0.00 0.00 0.00 51 1016.5
20260903194655 98 312 3.0 5.0 0.00 0.00 0.00 50 1016.5
20260903194150 97 228 2.0 3.0 0.00 0.00 0.00 50 1016.5
20260903193646 97 116 4.0 7.0 0.00 0.00 0.00 51 1016.6
20260903193146 98 234 4.0 7.0 0.00 0.00 0.00 49 1016.6
20260903192642 98 222 4.0 5.0 0.00 0.00 0.00 49 1016.7
20260903192137 98 294 2.0 2.0 0.00 0.00 0.00 49 1016.8
20260903191634 96 216 7.0 9.0 0.00 0.00 0.00 51 1016.9
20260903191133 97 210 6.0 6.0 0.00 0.00 0.00 50 1016.8
20260903190633 97 218 4.0 8.0 0.00 0.00 0.00 50 1016.9
20260903190133 96 318 2.0 3.0 0.00 0.00 0.00 51 1016.9
20260903185628 96 228 5.0 8.0 0.00 0.00 0.00 51 1016.9
20260903185123 98 182 6.0 7.0 0.00 0.00 0.00 51 1016.9
20260903184620 97 289 3.0 3.0 0.00 0.00 0.00 51 1016.8
20260903184115 97 223 5.0 7.0 0.00 0.00 0.00 51 1016.8
20260903183614 97 351 3.0 3.0 0.00 0.00 0.00 49 1016.8
20260903183109 96 216 9.0 11.0 0.00 0.00 0.00 52 1016.9
20260903182608 96 342 1.0 2.0 0.00 0.00 0.00 54 1016.9
20260903182104 98 344 1.0 1.0 0.00 0.00 0.00 51 1017.1
20260903181602 97 326 5.0 6.0 0.00 0.00 0.00 49 1017.0
20260903181057 97 299 1.0 2.0 0.00 0.00 0.00 51 1017.2
20260903180552 97 339 0.0 0.0 0.00 0.00 0.00 52 1017.0
20260903180047 96 322 0.0 0.0 0.00 0.00 0.00 51 1017.3
20260903175545 97 352 0.0 0.0 0.00 0.00 0.00 49 1017.3
20260903175040 97 337 2.0 3.0 0.00 0.00 0.00 49 1017.4
20260903174535 96 291 2.0 2.0 0.00 0.00 0.00 51 1017.7
20260903174029 97 5 1.0 2.0 0.00 0.00 0.00 50 1017.7
20260903173524 96 324 0.0 0.0 0.00 0.00 0.00 53 1017.6